sat.trackr.live / text

‹ back to catalog

UNKNOWN

NORAD 81366

UNKNOWN UNKNOWN UNKNOWN

§ Identity

Operator
Country
Launch date
Launch site
Launch vehicle
Mass (kg)
RCS (m²)

External: N2YO · Heavens-Above

§ Orbital elements

Epoch: 2026-05-23T00:35:25.649952Z

Period
107.02 min
Inclination
65.8831°
Eccentricity
0.0717489
Mean motion
13.45563637 rev/d
Perigee alt
552.9 km
Apogee alt
1,624.4 km
Semi-major
7,466.8 km
B*
3.9067e-4
RAAN
50.1940°
Arg perigee
3.2863°
Mean anomaly
357.2540°
Rev number
8,765

§ Raw data

UNKNOWN1 81366U          26143.02460243  .00001066  00000+0  39067-3 0  99912 81366  65.8831  50.1940 0717489   3.2863 357.2540 13.45563637 87659

JSON: /api/v1/satellites/81366 · /tle

For live sub-satellite position, see the globe view (requires WebGL).

§ Visibility from observer

Set your observer location to see the next 7 days of passes ≥ 10°. The values pass through the URL so the page stays shareable.

No JS? Fill the form by hand. The geolocation button needs JavaScript.